Weather History for Scottsdale, AZ

Change the Weather History Date:

Thursday, November 15, 2012

  Actual Average Record
Temperature  
Mean Temperature 61 °F -  
Max Temperature 71 °F 71 °F 89 °F (1999)
Min Temperature 51 °F 49 °F 39 °F (2000)
Degree Days  
Heating Degree Days 4    
Growing Degree Days 11 (Base 50)    
Moisture  
Dew Point 28 °F    
Average Humidity 29    
Maximum Humidity 44    
Minimum Humidity 18    
Precipitation  
Precipitation 0.00 in - - ()
Sea Level Pressure  
Sea Level Pressure 30.04 in    
Wind  
Wind Speed 1 mph (West)    
Max Wind Speed 4 mph    
Max Gust Speed -    
Visibility 10 miles    
Events      
Averages and records for this station are not official NWS values.
T = Trace of Precipitation, MM = Missing Value Source: NWS Daily Summary

Daily Weather History Graph

Daily Weather History Graph

Search for Another Location

Airport:

Trip Planner

Search our weather history database for the weather conditions in past years. The results will help you decide how hot, cold, wet, or windy it might be!

Date:

Astronomy

Nov. 15, 2012 Rise Set
Actual Time 6:59 AM MST 5:24 PM MST
Civil Twilight 6:33 AM MST 5:50 PM MST
Nautical Twilight 6:03 AM MST 6:20 PM MST
Astronomical Twilight 5:33 AM MST 6:50 PM MST
Moon 8:56 AM MST (11/15) 7:23 PM MST (11/15)
Length of Visible Light 11h 17m
Length of Day
10h 24m
Waxing Crescent, 5% of the Moon is Illuminated
Nov 15
Waxing Crescent
Nov 20
First Quarter
Nov 28
Full
Dec 6
Last Quarter
Dec 13
New

Hourly Weather History & Observations

Time (MST) Temp. Dew Point Humidity Pressure Visibility Wind Dir Wind Speed Gust Speed Precip Events Conditions
12:53 AM 57.0 °F 28.9 °F 34% 30.01 in 10.0 mi Calm Calm - N/A   Clear
1:53 AM 55.9 °F 28.0 °F 34% 30.01 in 10.0 mi NE 3.5 mph - N/A   Clear
2:53 AM 54.0 °F 30.0 °F 40% 29.99 in 10.0 mi Calm Calm - N/A   Clear
3:53 AM 51.1 °F 30.0 °F 44% 29.99 in 10.0 mi Calm Calm - N/A   Clear
4:53 AM 51.1 °F 30.0 °F 44% 30.02 in 10.0 mi Calm Calm - N/A   Clear
5:53 AM 52.0 °F 30.0 °F 43% 30.02 in 10.0 mi Calm Calm - N/A   Clear
6:53 AM 52.0 °F 28.9 °F 41% 30.02 in 10.0 mi Calm Calm - N/A   Clear
7:53 AM 55.9 °F 27.0 °F 33% 30.06 in 10.0 mi Calm Calm - N/A   Clear
8:53 AM 61.0 °F 25.0 °F 25% 30.08 in 10.0 mi Calm Calm - N/A   Clear
9:53 AM 64.0 °F 25.0 °F 23% 30.09 in 10.0 mi WSW 3.5 mph - N/A   Clear
10:53 AM 66.9 °F 27.0 °F 22% 30.10 in 10.0 mi SW 3.5 mph - N/A   Clear
11:53 AM 69.1 °F 25.0 °F 19% 30.09 in 10.0 mi Calm Calm - N/A   Clear
12:53 PM 69.1 °F 28.9 °F 22% 30.06 in 10.0 mi Calm Calm - N/A   Clear
1:53 PM 70.0 °F 26.1 °F 19% 30.04 in 10.0 mi Calm Calm - N/A   Clear
2:53 PM 71.1 °F 25.0 °F 18% 30.02 in 10.0 mi Calm Calm - N/A   Clear
3:53 PM 71.1 °F 25.0 °F 18% 30.02 in 10.0 mi Calm Calm - N/A   Clear
4:53 PM 71.1 °F 26.1 °F 19% 30.03 in 10.0 mi Calm Calm - N/A   Clear
5:53 PM 68.0 °F 30.0 °F 24% 30.04 in 10.0 mi NW 3.5 mph - N/A   Clear
6:53 PM 66.9 °F 32.0 °F 27% 30.04 in 10.0 mi Calm Calm - N/A   Clear
7:53 PM 68.0 °F 28.0 °F 22% 30.04 in 10.0 mi North 3.5 mph - N/A   Mostly Cloudy
8:53 PM 64.9 °F 30.0 °F 27% 30.06 in 10.0 mi WSW 3.5 mph - N/A   Clear
9:53 PM 66.0 °F 30.0 °F 26% 30.05 in 10.0 mi Calm Calm - N/A   Clear
10:53 PM 63.0 °F 30.9 °F 30% 30.04 in 10.0 mi Calm Calm - N/A   Clear
11:53 PM 62.1 °F 32.0 °F 32% 30.04 in 10.0 mi SW 3.5 mph - N/A   Clear